Regional Weather Roundup
Issued by NWS

Home | Current Version | Previous Version | Text Only | Print | Product List | Glossary On
Versions: 1 2 3 4 5 6 7 8 9 10 11 12 13 14 15 16 17 18 19 20 21 22 23 24 25 26 27 28 29 30 31 32 33 34 35 36 37 38 39 40 41 42 43 44 45 46 47 48 49 50
733
ASUS44 KLIX 261307
RWRLA
LOUISIANA WEATHER ROUNDUP
NATIONAL WEATHER SERVICE NEW ORLEANS LA
800 AM CDT THU MAR 26 2015

NOTE: "FAIR" INDICATES FEW OR NO CLOUDS BELOW 12,000 FEET WITH NO
      SIGNIFICANT WEATHER AND/OR OBSTRUCTIONS TO VISIBILITY.
      SKY/WX - SKY CONDITION AND SIGNIFICANT WEATHER.
      TMP - AIR TEMPERATURE.    DP   - DEWPOINT TEMPERATURE.
      RH  - RELATIVE HUMIDITY.  PRES - PRESSURE.
      HX  - HEAT INDEX.         WCI  - WIND CHILL INDEX.

*  THESE STATIONS ARE NOT NWS OR FAA STATIONS AND ARE NOT UNDER
   NWS QUALITY CONTROL.

LAZ040-048-061>063-065-066-069-261400-
SOUTHEAST LOUISIANA

CITY           SKY/WX    TMP DP  RH WIND       PRES   REMARKS
N.O. AUDUBON     N/A     70  65  84 MISG        N/A
N.O. INTL ARPT CLOUDY    69  65  86 E3        29.91R
N.O. LAKEFRONT CLOUDY    71  66  84 E7        29.92R
SLIDELL        CLOUDY    65  64  97 CALM      29.93R
BATON ROUGE    CLOUDY    64  62  93 CALM      29.93R FOG
BOOTHVILLE     LGT RAIN  66  66 100 E3        29.93S FOG
BELLE CHASSE   CLOUDY    69  66  90 NE3       29.91R THUNDER FOG
BOGALUSA*        N/A     62  59  90 N5        29.95S FOG
GALLIANO*      LGT RAIN  71  68  89 SW10      29.91F
NEW ROADS*     CLOUDY    62  60  93 N3        29.95R
GONZALES*      CLOUDY    65  65 100 CALM      29.92R
HAMMOND*       CLOUDY    64  61  88 CALM      29.94S
HOUMA*         PTSUNNY   70  70 100 CALM      29.92R FOG
PORT FOURCHON* PTSUNNY   70  66  88 SW9       29.95F FOG

$$

LAZ041-044-053-054-261400-
SOUTHWEST LOUISIANA

CITY           SKY/WX    TMP DP  RH WIND       PRES   REMARKS
LAKE CHARLES   CLOUDY    66  64  93 CALM      29.91S FOG
LAFAYETTE      PTSUNNY   64  62  93 CALM      29.91R
PATTERSON      CLOUDY    66  63  88 CALM      29.93R
SALT POINT       N/A     67  66  97 CALM      29.90R
NEW IBERIA     PTSUNNY   66  64  93 E3        29.92R
CHENAULT AIRPK PTSUNNY   63  63 100 CALM      29.93R FOG

$$

LAZ027-028-261400-
CENTRAL LOUISIANA

CITY           SKY/WX    TMP DP  RH WIND       PRES   REMARKS
FORT POLK      CLOUDY    62  61  96 SE3       29.90F
ALEXANDRIA INT CLOUDY    61  61 100 SE3       29.91S FOG
ALEXANDRIA     CLOUDY    59  58  96 CALM      29.92F

$$

LAZ001-002-261400-
NORTHWEST LOUISIANA

CITY           SKY/WX    TMP DP  RH WIND       PRES   REMARKS
SHREVEPORT     CLOUDY    63  59  87 S5        29.89R
BARKSDALE AFB  MOCLDY    62  60  94 SE6       29.89R
DTN SHREVEPORT CLOUDY    62  58  86 S5        29.89R

$$

LAZ014-016-261400-
NORTHEAST LOUISIANA

CITY           SKY/WX    TMP DP  RH WIND       PRES   REMARKS
MONROE         CLOUDY    60  58  92 CALM      29.94R
TALLULAH       PTSUNNY   60  56  86 CALM      29.95F

$$




USA.gov is the U.S. government's official web portal to all federal, state and local government web resources and services.